    Orbital elements:
    2020 MS1                                                 Earth MOID = 0.0419 AU
    Epoch 2020 May 31.0 TT = JDT 2459000.5                  Pike
    M 194.58413              (2000.0)            P               Q
    n   1.04263754     Peri.  151.07192     +0.41987509     -0.80383146
    a   0.9631941      Node   271.22256     +0.73031398     +0.57489300
    e   0.1173369      Incl.   24.92772     +0.53883802     -0.15281697
    P   0.95           H   23.3           G   0.15           U   7
    Residuals in seconds of arc
    200621 T05  0.3-  0.6+    200622 F51  0.2-  0.3-    200622 L01  0.5-  0.2-
    200621 T05  0.0   1.0-    200622 595  0.2-  0.6-    200622 160  0.5-  0.6-
    200621 T05  0.6-  0.4+    200622 L39  0.1+  0.3+    200622 Z80  1.2-  0.0
    200621 T05  0.1-  0.8-    200622 595  0.5+  0.0     200622 160  0.1-  0.6-
    200621 N88 (1.5-  0.5-)   200622 L39 (1.6-  0.5+)   200622 J95  0.6-  0.3-
    200621 N88 (2.0-  1.4-)   200622 G34  0.8-  0.5-    200622 Z80  1.0-  0.2-
    200621 B49  0.4+  0.1-    200622 595  0.5-  0.2-    200622 160  0.6-  0.2-
    200621 B49  0.1-  0.4-    200622 L39  0.6-  0.0     200623 J95  0.4-  0.4-
    200621 J04  0.2-  0.4-    200622 G34  0.7-  0.5-    200623 Z80  0.3-  0.2-
    200621 J04  0.1-  0.3-    200622 G34  0.3-  0.2+    200623 J95  0.2-  0.3-
    200621 J04  0.2-  0.3-    200622 G34  0.5-  0.4-    200623 J95  0.2-  0.3-
    200622 J95  0.2-  0.0     200622 203  0.2-  0.0     200623 160  0.1-  0.2+
    200622 J95  0.3-  0.2-    200622 203  0.9-  0.7-    200623 160  0.2-  0.7-
    200622 J95  0.3-  0.0     200622 203  0.2-  0.4-    200623 104  0.5-  0.1+
    200622 J95  0.3-  0.1-    200622 958  0.4-  0.3-    200623 160  0.1-  0.2-
    200622 I93  0.5-  0.1-    200622 958  0.0   0.3-    200623 104  0.3-  0.0
    200622 I93  0.3-  0.3-    200622 958  0.1+  0.1-    200623 160  0.3+  0.3-
    200622 I93  0.3-  0.4-    200622 958  0.8-  0.6-    200623 204  0.3-  0.2-
    200622 H21  0.4-  0.3-    200622 L01  0.3-  0.2-    200623 104  0.2-  0.3+
    200622 H21  0.3-  0.2-    200622 L01  0.4-  0.3-    200623 204  0.5-  0.2-
    200622 H21  0.4-  0.3-    200622 L01  0.4-  0.1-    200623 204  0.3-  0.2-
    200622 H21  0.2-  0.3-    200622 L01  0.3-  0.3-    200623 204  0.2-  0.3-
    200622 H21  0.5-  0.3-    200622 L01  0.4-  0.1-    200623 204  0.2-  0.3-
    
    Ephemeris:
    2020 MS1                 a,e,i = 0.96, 0.12, 25                  q = 0.8502
    Date    TT    R. A. (2000) Decl.     Delta      r    Elong.  Phase     V
    2020 05 24    23 23 09.2 -63 49 09   0.2240  1.0755   100.3    67.9    22.6
    ...
    2020 06 08    22 34 56.3 -55 19 21   0.1234  1.0690   112.8    61.0    21.1
    ...
    2020 06 16    21 35 20.3 -39 51 04   0.07386 1.0629   127.9    48.9    19.6
    ...
    2020 06 22    20 27 12.0 -07 36 36   0.05107 1.0571   142.1    36.2    18.4
    2020 06 23    20 14 12.2 -00 02 22   0.05014 1.0561   141.4    36.9    18.4
    2020 06 24    20 00 56.1 +07 38 05   0.05029 1.0550   139.1    39.2    18.5
    ...
    2020 06 30    18 41 35.6 +41 56 46   0.06976 1.0479   114.9    61.7    19.8
    ...
    2020 07 08    17 18 09.5 +57 22 45   0.1171  1.0371    96.8    76.8    21.4
    ...
    2020 07 23    15 55 56.8 +63 19 45   0.2126  1.0129    83.2    84.8    22.9
    
    M. P. C. Staff               (C) Copyright 2020 MPC           M.P.E.C. 2020-M78
    


    Read MPEC 2020-M77 Read MPEC 2020-M79


    MPEC number:

    Enter an MPEC number in one of the following forms:

    • 1997-B01 (the full form)
    • J97B01 (the packed version of the full form)
    • B01 (the abbreviated form)